Погода в Сакатекасе

Мексика     22°45′58″N   102°34′38″W
темп.,
°C
ветер,
м/с
пор.,
м/с
влажн.,
%
обл.,
%
осадки,
мм/ч
давл.,
гПа
погр.,
м
27 февраля, сб
сб2700:00+14зюз4529100 0.0 101449
03:00+13зюз4432100 0.0 101335
06:00+10юз3335100 0.0 101423
09:00+17ююз342496 0.0 1015236
12:00+24зюз661451 0.0 10121738
15:00+25юз771140 0.0 10082548
18:00+23зюз561569 0.0 10081508
21:00+15з7132999 0.0 1013208
28 февраля, вс
вс2800:00+14зюз5630100 0.0 101576
03:00+12зюз5833100 0.0 1015109
06:00+8ююз2244100 0.0 101623
09:00+15ююз3429100 0.0 1017266
12:00+22зюз672090 0.0 10141492
15:00+25юз781783 0.0 10092455
18:00+22зюз781978 0.0 10092044
21:00+15з81429100 0.0 1014288
1 марта, пн
пн100:00+12зюз4635100 0.0 101661
03:00+11зюз453667 0.0 101636
06:00+6ю114781 0.0 101622
09:00+15всв222620 0.0 1018254
12:00+21всв132022 0.0 10141500
15:00+25юз451792 0.0 10093078
18:00+23зюз561895 0.0 1008937
21:00+14ссв91325100 0.0 1015318
2 марта, вт
вт200:00+10ссв592778 0.0 1018302
03:00+12в2667100 0.0 1018421
06:00+10в356596 0.0 1018318
09:00+11вюв348183 0.0 1019351
12:00+20ю574468 0.0 10151407
15:00+25юз79230 0.0 10092533
18:00+23зюз89180 0.0 10082175
21:00+14з47260 0.0 1014106
3 марта, ср
ср300:00+9зюз12430 0.0 101623
03:00+6ю11614 0.0 101622
06:00+7ююз12482 0.0 101723
09:00+17юз11220 0.0 1018200
12:00+23юз66160 0.0 10141838
15:00+25юз77150 0.0 10102534
18:00+23з87140 0.0 10092605
21:00+14з713215 0.0 1015183